FW8305 Weather Reports


time (UTC)temp
C
wind
direction
speed
KPH
gust
KPH
rain 1hr
cm
rain 24hr
cm
rain mn
cm
humidity
%
barometer
mb
20260505101010 8 87 19.3 32.2 0.36 0.71 0.71 91 1007.5
20260505100510 8 58 20.9 35.4 0.43 0.69 0.69 91 1007.4
20260505100038 8 68 22.5 35.4 0.43 0.66 0.66 91 1007.5
20260505095510 8 49 19.3 29.0 0.43 0.64 0.64 91 1008.8
20260505095010 8 39 14.5 30.6 0.43 0.58 0.58 91 1009.7
20260505094528 8 8 12.9 30.6 0.56 0.56 0.56 90 1010.1
20260505094008 8 30 12.9 24.1 0.53 0.53 0.53 90 1010.5
20260505093509 9 351 16.1 24.1 0.51 0.51 0.51 90 1010.6
20260505093032 9 354 8.0 24.1 0.48 0.48 0.48 90 1010.4
20260505092508 10 11 8.0 30.6 0.46 0.46 0.46 90 1010.1
20260505092011 10 53 6.4 30.6 0.43 0.43 0.43 89 1009.3
20260505091536 10 32 17.7 35.4 0.43 0.43 0.43 88 1009.0
20260505091011 10 44 16.1 35.4 0.33 0.33 0.33 87 1008.7
20260505090510 10 200 16.1 30.6 0.25 0.25 0.25 86 1008.8
20260505090030 11 32 12.9 30.6 0.23 0.23 0.23 86 1008.3
20260505085508 12 63 16.1 30.6 0.20 0.20 0.20 85 1008.3
20260505085011 12 20 14.5 35.4 0.13 0.13 0.13 83 1007.9
20260505084528 13 3 17.7 35.4 0.00 0.00 0.00 76 1007.6
20260505084008 14 348 19.3 29.0 0.00 0.00 0.00 74 1007.5
20260505083514 15 30 17.7 33.8 0.00 0.00 0.00 72 1006.8
20260505083036 15 4 14.5 33.8 0.00 0.00 0.00 72 1006.5
20260505082512 15 13 20.9 33.8 0.00 0.00 0.00 70 1006.2
20260505082011 16 44 20.9 32.2 0.00 0.00 0.00 69 1006.0
20260505081534 16 20 12.9 24.1 0.00 0.00 0.00 70 1005.8
20260505081008 17 30 16.1 25.7 0.00 0.00 0.00 70 1005.4
20260505080510 17 34 11.3 25.7 0.00 0.00 0.00 69 1005.2
20260505080043 18 30 6.4 17.7 0.00 0.00 0.00 68 1005.3
20260505075509 19 51 0.0 1.6 0.00 0.00 0.00 71 1005.2
20260505075009 19 0 0.0 1.6 0.00 0.00 0.00 71 1005.0
20260505074528 18 0 0.0 0.0 0.00 0.00 0.00 72 1004.9
20260505074011 18 0 0.0 0.0 0.00 0.00 0.00 72 1005.1
20260505073509 18 0 0.0 0.0 0.00 0.00 0.00 72 1004.9
20260505073030 19 0 0.0 0.0 0.00 0.00 0.00 72 1005.1
20260505072511 19 0 0.0 1.6 0.00 0.00 0.00 71 1005.2
20260505072009 19 0 0.0 1.6 0.00 0.00 0.00 71 1005.1
20260505071538 19 0 0.0 3.2 0.00 0.00 0.00 71 1005.1
20260505071013 19 0 0.0 3.2 0.00 0.00 0.00 71 1005.1
20260505070511 19 0 0.0 3.2 0.00 0.00 0.00 71 1004.9
20260505070030 19 0 0.0 9.7 0.00 0.00 0.00 71 1004.7
20260505065510 19 0 0.0 9.7 0.00 0.00 0.00 70 1004.6
20260505065015 19 0 1.6 17.7 0.00 0.00 0.00 70 1004.7
20260505064530 19 217 0.0 17.7 0.00 0.00 0.00 70 1004.9
20260505064009 19 193 3.2 17.7 0.00 0.00 0.00 71 1004.9
20260505063509 19 0 0.0 6.4 0.00 0.00 0.00 71 1004.9
20260505063043 19 222 0.0 1.6 0.00 0.00 0.00 72 1005.1
20260505062511 18 0 0.0 1.6 0.00 0.00 0.00 72 1005.3
20260505062008 18 0 0.0 1.6 0.00 0.00 0.00 72 1005.3
20260505061534 18 0 0.0 1.6 0.00 0.00 0.00 72 1005.4
20260505061010 18 0 0.0 1.6 0.00 0.00 0.00 73 1005.3
20260505060515 18 0 0.0 0.0 0.00 0.00 0.00 73 1005.2
20260505060032 18 0 0.0 0.0 0.00 0.00 0.00 72 1005.0
20260505055514 18 0 0.0 0.0 0.00 0.00 0.00 72 1004.9
20260505055014 18 0 0.0 0.0 0.00 0.00 0.00 71 1004.7
20260505054538 18 0 0.0 3.2 0.00 0.00 0.00 71 1004.4
20260505054015 18 0 0.0 3.2 0.00 0.00 0.00 71 1004.4
20260505053510 19 0 0.0 3.2 0.00 0.00 0.00 70 1004.3
20260505053028 19 0 0.0 12.9 0.00 0.00 0.00 70 1004.2
20260505052511 19 0 0.0 12.9 0.00 0.00 0.00 70 1004.4
20260505052009 19 0 0.0 8.0 0.00 0.00 0.00 70 1004.4
20260505051539 19 0 0.0 3.2 0.00 0.00 0.00 70 1004.3
20260505051010 19 0 0.0 8.0 0.00 0.00 0.00 70 1003.9
20260505050511 19 0 0.0 8.0 0.00 0.00 0.00 70 1003.8
20260505041544 20 236 0.0 1.6 0.00 0.00 0.00 67 1005.1
20260505041009 20 0 0.0 3.2 0.00 0.00 0.00 67 1005.2
20260505040509 20 0 0.0 3.2 0.00 0.00 0.00 67 1005.2
20260505040029 20 0 0.0 3.2 0.00 0.00 0.00 67 1005.3
20260505035510 20 0 0.0 3.2 0.00 0.00 0.00 67 1005.4
20260505035011 20 0 0.0 1.6 0.00 0.00 0.00 68 1005.4
20260505034528 20 0 0.0 1.6 0.00 0.00 0.00 67 1005.5
20260505034009 20 0 0.0 0.0 0.00 0.00 0.00 67 1005.5
20260505033508 20 0 0.0 3.2 0.00 0.00 0.00 67 1005.5
20260505033030 20 0 0.0 3.2 0.00 0.00 0.00 67 1005.4
20260505032517 20 0 0.0 1.6 0.00 0.00 0.00 67 1005.4
20260505032011 20 0 0.0 1.6 0.00 0.00 0.00 68 1005.4
20260505031532 20 0 0.0 0.0 0.00 0.00 0.00 68 1005.3
20260505031011 20 0 0.0 1.6 0.00 0.00 0.00 68 1005.2
20260505030510 20 0 0.0 1.6 0.00 0.00 0.00 68 1005.2
20260505030029 20 0 0.0 0.0 0.00 0.00 0.00 68 1005.2
20260505025514 20 0 0.0 0.0 0.00 0.00 0.00 68 1005.1
20260505025010 20 0 0.0 0.0 0.00 0.00 0.00 68 1005.0
20260505024528 20 0 0.0 0.0 0.00 0.00 0.00 68 1004.9
20260505024012 20 0 0.0 1.6 0.00 0.00 0.00 68 1004.9
20260505023511 20 0 0.0 1.6 0.00 0.00 0.00 68 1004.8
20260505023032 20 0 0.0 1.6 0.00 0.00 0.00 69 1004.7
20260505022509 20 0 0.0 1.6 0.00 0.00 0.00 68 1004.7
20260505022010 20 0 0.0 1.6 0.00 0.00 0.00 69 1004.6
20260505021529 20 0 0.0 0.0 0.00 0.00 0.00 69 1004.6
20260505021009 20 0 0.0 0.0 0.00 0.00 0.00 69 1004.6
20260505020510 20 0 0.0 0.0 0.00 0.00 0.00 68 1004.4
20260505020036 20 0 0.0 0.0 0.00 0.00 0.00 68 1004.3
20260505015511 20 0 0.0 0.0 0.00 0.00 0.00 68 1004.3
20260505015013 21 0 0.0 0.0 0.00 0.00 0.00 67 1004.2
20260505014528 21 0 0.0 0.0 0.00 0.00 0.00 67 1004.0
20260505014010 21 0 0.0 0.0 0.00 0.00 0.00 67 1004.0
20260505013510 21 0 0.0 0.0 0.00 0.00 0.00 66 1003.9
20260505013029 21 0 0.0 0.0 0.00 0.00 0.00 66 1003.8
20260505012512 21 0 0.0 0.0 0.00 0.00 0.00 65 1003.7
20260505012010 21 0 0.0 0.0 0.00 0.00 0.00 64 1003.8
20260505011528 21 0 0.0 0.0 0.00 0.00 0.00 64 1003.7
20260505011010 22 0 0.0 0.0 0.00 0.00 0.00 63 1003.7
20260505010510 22 0 0.0 0.0 0.00 0.00 0.00 62 1003.6
20260505010032 22 0 0.0 0.0 0.00 0.00 0.00 62 1003.6
20260505005509 22 0 0.0 0.0 0.00 0.00 0.00 61 1003.6
20260505005010 23 0 0.0 0.0 0.00 0.00 0.00 60 1003.6
20260505004531 23 0 0.0 0.0 0.00 0.00 0.00 60 1003.5
20260505004009 23 0 0.0 0.0 0.00 0.00 0.00 59 1003.6
20260505003509 23 0 0.0 0.0 0.00 0.00 0.00 58 1003.5
20260505003031 23 0 0.0 11.3 0.00 0.00 0.00 57 1003.5
20260505002511 23 0 1.6 11.3 0.00 0.00 0.00 57 1003.3
20260505002010 24 0 0.0 1.6 0.00 0.00 0.00 56 1003.4
20260505001528 24 0 0.0 1.6 0.00 0.00 0.00 56 1003.5
20260505001010 24 0 0.0 9.7 0.00 0.00 0.00 55 1003.5
20260505000509 24 0 0.0 9.7 0.00 0.00 0.00 55 1003.5
20260505000037 24 264 0.0 9.7 0.00 0.00 0.00 54 1003.3
20260504235511 24 245 0.0 20.9 0.00 0.00 0.00 54 1003.4
20260504235009 25 248 4.8 20.9 0.00 0.00 0.00 54 1003.3
20260504234533 25 236 4.8 20.9 0.00 0.00 0.00 54 1003.3
20260504234010 25 0 0.0 11.3 0.00 0.00 0.00 54 1003.3
20260504233509 25 0 0.0 12.9 0.00 0.00 0.00 54 1003.3
20260504233029 25 0 1.6 16.1 0.00 0.00 0.00 53 1003.3
20260504232510 25 220 3.2 16.1 0.00 0.00 0.00 53 1003.3
20260504232029 25 240 1.6 16.1 0.00 0.00 0.00 54 1003.3
20260504231533 25 227 0.0 20.9 0.00 0.00 0.00 52 1003.3
20260504231010 25 239 3.2 24.1 0.00 0.00 0.00 53 1003.3
20260504230511 25 220 8.0 24.1 0.00 0.00 0.00 50 1003.3
20260504230028 26 251 6.4 24.1 0.00 0.00 0.00 51 1003.3
20260504225510 26 224 4.8 20.9 0.00 0.00 0.00 50 1003.3
20260504225012 26 295 3.2 22.5 0.00 0.00 0.00 51 1003.2
20260504224532 26 242 6.4 22.5 0.00 0.00 0.00 50 1003.3
20260504224008 26 277 9.7 24.1 0.00 0.00 0.00 50 1003.3
20260504223511 26 280 6.4 25.7 0.00 0.00 0.00 51 1003.3
20260504223032 26 266 6.4 27.4 0.00 0.00 0.00 51 1003.3
20260504222510 26 272 8.0 27.4 0.00 0.00 0.00 50 1003.4
20260504222010 26 255 12.9 22.5 0.00 0.00 0.00 49 1003.3
20260504221530 26 277 8.0 30.6 0.00 0.00 0.00 49 1003.3
20260504221009 26 240 9.7 30.6 0.00 0.00 0.00 50 1003.2
20260504220509 26 234 8.0 27.4 0.00 0.00 0.00 49 1003.2
20260504220029 26 288 4.8 30.6 0.00 0.00 0.00 51 1003.4
20260504215512 26 221 16.1 30.6 0.00 0.00 0.00 49 1003.3
20260504215011 26 250 12.9 30.6 0.00 0.00 0.00 47 1003.3
20260504214540 26 287 12.9 32.2 0.00 0.00 0.00 48 1003.3
20260504214014 26 217 12.9 32.2 0.00 0.00 0.00 48 1003.3
20260504213510 26 277 12.9 29.0 0.00 0.00 0.00 48 1003.3
20260504213030 26 270 16.1 29.0 0.00 0.00 0.00 47 1003.3
20260504212509 27 266 16.1 27.4 0.00 0.00 0.00 47 1003.5
20260504212008 27 269 4.8 25.7 0.00 0.00 0.00 49 1003.4
20260504211527 27 255 11.3 25.7 0.00 0.00 0.00 48 1003.3
20260504211011 27 257 8.0 25.7 0.00 0.00 0.00 48 1003.4
20260504210517 27 266 11.3 33.8 0.00 0.00 0.00 48 1003.3
20260504210027 26 233 12.9 33.8 0.00 0.00 0.00 48 1003.4
20260504205511 26 271 16.1 33.8 0.00 0.00 0.00 46 1003.5
20260504205012 27 270 14.5 35.4 0.00 0.00 0.00 48 1003.5
20260504204529 27 243 16.1 35.4 0.00 0.00 0.00 47 1003.5
20260504204009 27 226 14.5 35.4 0.00 0.00 0.00 46 1003.6
20260504203509 27 226 9.7 25.7 0.00 0.00 0.00 49 1003.6
20260504203031 27 282 6.4 24.1 0.00 0.00 0.00 50 1003.7
20260504202511 26 210 4.8 24.1 0.00 0.00 0.00 51 1003.7
20260504202010 26 226 9.7 22.5 0.00 0.00 0.00 54 1003.8
20260504201530 26 255 4.8 27.4 0.00 0.00 0.00 51 1003.9
20260504201008 26 243 12.9 32.2 0.00 0.00 0.00 51 1003.9
20260504200507 26 250 11.3 32.2 0.00 0.00 0.00 51 1003.9
20260504200033 25 256 14.5 32.2 0.00 0.00 0.00 49 1003.9
20260504195509 26 252 12.9 25.7 0.00 0.00 0.00 50 1004.0
20260504195011 26 231 3.2 24.1 0.00 0.00 0.00 52 1004.1
20260504194529 26 276 9.7 32.2 0.00 0.00 0.00 51 1004.1
20260504194010 26 262 14.5 32.2 0.00 0.00 0.00 49 1004.2
20260504193514 26 247 14.5 25.7 0.00 0.00 0.00 52 1004.2
20260504193027 26 264 8.0 27.4 0.00 0.00 0.00 52 1004.3
20260504192514 26 238 6.4 27.4 0.00 0.00 0.00 51 1004.3
20260504192009 26 218 16.1 27.4 0.00 0.00 0.00 50 1004.2
20260504191528 26 245 12.9 25.7 0.00 0.00 0.00 51 1004.3
20260504191013 25 215 11.3 29.0 0.00 0.00 0.00 51 1004.4
20260504190511 25 249 16.1 29.0 0.00 0.00 0.00 50 1004.4
20260504190030 25 266 11.3 33.8 0.00 0.00 0.00 53 1004.5
20260504185509 25 269 16.1 33.8 0.00 0.00 0.00 51 1004.6
20260504185009 25 217 9.7 27.4 0.00 0.00 0.00 53 1004.5
20260504184536 25 225 12.9 30.6 0.00 0.00 0.00 51 1004.5
20260504184009 25 237 12.9 30.6 0.00 0.00 0.00 52 1004.5
20260504183507 25 228 14.5 32.2 0.00 0.00 0.00 52 1004.5
20260504183035 25 270 12.9 32.2 0.00 0.00 0.00 53 1004.4
20260504182509 25 217 3.2 19.3 0.00 0.00 0.00 53 1004.6
20260504182010 25 0 1.6 24.1 0.00 0.00 0.00 55 1004.6
20260504181527 25 210 6.4 25.7 0.00 0.00 0.00 52 1004.6
20260504181010 25 207 9.7 25.7 0.00 0.00 0.00 54 1004.6
20260504180511 25 251 3.2 25.7 0.00 0.00 0.00 55 1004.6
20260504180030 24 0 4.8 25.7 0.00 0.00 0.00 56 1004.8
20260504175511 24 232 3.2 16.1 0.00 0.00 0.00 56 1004.9
20260504175011 23 291 0.0 25.7 0.00 0.00 0.00 58 1005.0
20260504174526 23 263 9.7 25.7 0.00 0.00 0.00 55 1004.9
20260504174008 23 281 11.3 25.7 0.00 0.00 0.00 54 1004.8
20260504173512 23 250 6.4 20.9 0.00 0.00 0.00 53 1005.0
20260504173029 23 0 0.0 19.3 0.00 0.00 0.00 57 1005.0
20260504172512 23 0 0.0 19.3 0.00 0.00 0.00 54 1004.9
20260504172011 22 0 4.8 19.3 0.00 0.00 0.00 54 1004.9
20260504171528 22 238 3.2 22.5 0.00 0.00 0.00 53 1004.7
20260504171011 22 283 11.3 37.0 0.00 0.00 0.00 52 1004.3
20260504170515 23 312 9.7 37.0 0.00 0.00 0.00 52 1004.6
20260504151009 22 234 9.7 29.0 0.00 0.00 0.00 52 1005.3
20260504150510 22 240 14.5 29.0 0.00 0.00 0.00 51 1005.3
20260504141013 20 0 9.7 24.1 0.00 0.00 0.00 56 1005.9
20260504140510 20 240 1.6 20.9 0.00 0.00 0.00 57 1006.0
20260504130509 17 255 3.2 17.7 0.00 0.00 0.00 61 1006.3
20260504110510 17 0 0.0 11.3 0.00 0.00 0.00 59 1006.5